When you browse on this site, cookies collect data to enhance your experience and personalize the content and advertising you see.
Visit our Privacy Policy to learn more. By continuing to use the site, you agree to this use of cookies and data.

Meteo pe oră la Hanoi

Astăzi, 8 August, Sâmbătă

Timp Temperatura Precipitaţii Vânt Presiune Umiditate
00:00 +28°C° 0 mm 2 m/s 753 mmHg 90%
01:00 +28°C° 0 mm 2 m/s 753 mmHg 91%
02:00 +28°C° 0 mm 2 m/s 753 mmHg 91%
03:00 +28°C° 0 mm 1 m/s 753 mmHg 91%
04:00 +28°C° 0 mm 1 m/s 752 mmHg 92%
05:00 +28°C° 0 mm 1 m/s 752 mmHg 89%
06:00 +29°C° 0 mm 1 m/s 752 mmHg 87%
07:00 +30°C° 0 mm 1 m/s 752 mmHg 85%
08:00 +31°C° 0.1 mm 2 m/s 753 mmHg 79%
09:00 +32°C° 0.1 mm 2 m/s 753 mmHg 73%
10:00 +35°C° 0.1 mm 3 m/s 753 mmHg 67%
11:00 +35°C° 0.2 mm 3 m/s 752 mmHg 66%
12:00 +36°C° 0.2 mm 3 m/s 752 mmHg 65%
13:00 +36°C° 0.2 mm 3 m/s 751 mmHg 64%
14:00 +36°C° 0.1 mm 4 m/s 750 mmHg 65%
15:00 +36°C° 0.1 mm 4 m/s 750 mmHg 65%
16:00 +36°C° 0.1 mm 4 m/s 749 mmHg 66%
17:00 +34°C° 0 mm 4 m/s 749 mmHg 71%
18:00 +33°C° 0 mm 4 m/s 749 mmHg 77%
19:00 +32°C° 0 mm 4 m/s 750 mmHg 82%
20:00 +30°C° 0 mm 3 m/s 750 mmHg 84%
21:00 +30°C° 0 mm 3 m/s 751 mmHg 86%
22:00 +29°C° 0 mm 3 m/s 752 mmHg 88%
23:00 +29°C° 0 mm 3 m/s 751 mmHg 89%

Mâine, 9 August, Duminică

Timp Temperatura Precipitaţii Vânt Presiune Umiditate
00:00 +29°C° 0 mm 2 m/s 751 mmHg 90%
01:00 +29°C° 0 mm 2 m/s 751 mmHg 91%
02:00 +29°C° 0 mm 2 m/s 751 mmHg 92%
03:00 +28°C° 0 mm 2 m/s 750 mmHg 92%
04:00 +28°C° 0 mm 2 m/s 750 mmHg 93%
05:00 +29°C° 0 mm 2 m/s 750 mmHg 91%
06:00 +29°C° 0 mm 1 m/s 750 mmHg 90%
07:00 +30°C° 0 mm 1 m/s 751 mmHg 88%
08:00 +31°C° 0.1 mm 1 m/s 751 mmHg 83%
09:00 +32°C° 0.1 mm 2 m/s 751 mmHg 78%
10:00 +34°C° 0.1 mm 2 m/s 751 mmHg 73%
11:00 +35°C° 0.2 mm 2 m/s 750 mmHg 70%
12:00 +36°C° 0.2 mm 2 m/s 750 mmHg 68%
13:00 +36°C° 0.2 mm 2 m/s 749 mmHg 65%
14:00 +37°C° 0 mm 2 m/s 748 mmHg 64%
15:00 +37°C° 0 mm 3 m/s 748 mmHg 64%
16:00 +37°C° 0 mm 3 m/s 747 mmHg 63%
17:00 +36°C° 0.2 mm 3 m/s 747 mmHg 70%
18:00 +34°C° 0.2 mm 4 m/s 748 mmHg 77%
19:00 +32°C° 0.2 mm 4 m/s 748 mmHg 83%
20:00 +32°C° 0.6 mm 4 m/s 749 mmHg 85%
21:00 +30°C° 0.6 mm 3 m/s 750 mmHg 87%
22:00 +30°C° 0.6 mm 3 m/s 751 mmHg 89%
23:00 +30°C° 0 mm 3 m/s 750 mmHg 89%

Poimâine, 10 August, Luni

Timp Temperatura Precipitaţii Vânt Presiune Umiditate
00:00 +30°C° 0 mm 3 m/s 750 mmHg 89%
01:00 +30°C° 0 mm 2 m/s 749 mmHg 89%
02:00 +29°C° 0.2 mm 2 m/s 749 mmHg 90%
03:00 +29°C° 0.2 mm 2 m/s 749 mmHg 91%
04:00 +29°C° 0.2 mm 1 m/s 749 mmHg 92%
05:00 +29°C° 0.8 mm 1 m/s 749 mmHg 91%
06:00 +29°C° 0.8 mm 1 m/s 749 mmHg 91%
07:00 +30°C° 0.8 mm 1 m/s 750 mmHg 91%
08:00 +31°C° 0 mm 1 m/s 750 mmHg 86%
09:00 +32°C° 0 mm 1 m/s 750 mmHg 81%
10:00 +34°C° 0 mm 2 m/s 750 mmHg 77%
11:00 +34°C° 0.2 mm 1 m/s 750 mmHg 73%
12:00 +35°C° 0.2 mm 1 m/s 749 mmHg 70%
13:00 +33°C° 0.2 mm 0 m/s 749 mmHg 66%
14:00 +35°C° 0.8 mm 1 m/s 749 mmHg 66%
15:00 +35°C° 0.8 mm 1 m/s 748 mmHg 66%
16:00 +35°C° 0.8 mm 1 m/s 748 mmHg 66%
17:00 +34°C° 1.4 mm 1 m/s 748 mmHg 72%
18:00 +33°C° 1.4 mm 1 m/s 749 mmHg 78%
19:00 +31°C° 1.4 mm 1 m/s 750 mmHg 84%
20:00 +31°C° 0.2 mm 2 m/s 750 mmHg 86%
21:00 +31°C° 0.2 mm 2 m/s 751 mmHg 88%
22:00 +30°C° 0.2 mm 2 m/s 751 mmHg 89%
23:00 +30°C° 1.2 mm 2 m/s 751 mmHg 89%

11 August, Marţi

Timp Temperatura Precipitaţii Vânt Presiune Umiditate
00:00 +30°C° 1.2 mm 2 m/s 751 mmHg 90%
01:00 +30°C° 1.2 mm 2 m/s 750 mmHg 90%
02:00 +29°C° 0.2 mm 2 m/s 750 mmHg 90%
03:00 +29°C° 0.2 mm 1 m/s 750 mmHg 91%
04:00 +29°C° 0.2 mm 1 m/s 750 mmHg 91%
05:00 +29°C° 0.6 mm 1 m/s 750 mmHg 91%
06:00 +29°C° 0.6 mm 1 m/s 750 mmHg 90%
07:00 +30°C° 0.6 mm 1 m/s 751 mmHg 90%
08:00 +31°C° 0 mm 1 m/s 751 mmHg 84%
09:00 +32°C° 0 mm 1 m/s 752 mmHg 78%
10:00 +34°C° 0 mm 1 m/s 752 mmHg 72%
11:00 +35°C° 0.3 mm 1 m/s 751 mmHg 68%
12:00 +36°C° 0.3 mm 1 m/s 751 mmHg 64%
13:00 +37°C° 0.3 mm 2 m/s 750 mmHg 60%
14:00 +37°C° 0.3 mm 2 m/s 750 mmHg 59%
15:00 +37°C° 0.3 mm 1 m/s 749 mmHg 59%
16:00 +37°C° 0.3 mm 1 m/s 749 mmHg 58%
17:00 +36°C° 0.3 mm 2 m/s 749 mmHg 66%
18:00 +34°C° 0.3 mm 3 m/s 749 mmHg 74%
19:00 +33°C° 0.3 mm 4 m/s 750 mmHg 82%
20:00 +32°C° 1.1 mm 4 m/s 751 mmHg 84%
21:00 +32°C° 1.1 mm 4 m/s 752 mmHg 85%
22:00 +30°C° 1.1 mm 4 m/s 752 mmHg 87%
23:00 +30°C° 0.4 mm 3 m/s 752 mmHg 87%

12 August, Miercuri

Timp Temperatura Precipitaţii Vânt Presiune Umiditate
00:00 +30°C° 0.4 mm 2 m/s 752 mmHg 87%
01:00 +30°C° 0.4 mm 2 m/s 752 mmHg 88%
02:00 +30°C° 0.1 mm 1 m/s 751 mmHg 89%
03:00 +29°C° 0.1 mm 1 m/s 751 mmHg 90%
04:00 +29°C° 0.1 mm 1 m/s 751 mmHg 91%
05:00 +29°C° 0.1 mm 1 m/s 751 mmHg 91%
06:00 +30°C° 0.1 mm 1 m/s 752 mmHg 90%
07:00 +30°C° 0.1 mm 1 m/s 752 mmHg 90%
08:00 +31°C° 0.9 mm 1 m/s 752 mmHg 83%
09:00 +34°C° 0.9 mm 2 m/s 752 mmHg 77%
10:00 +35°C° 0.9 mm 2 m/s 752 mmHg 70%
11:00 +36°C° 0 mm 2 m/s 752 mmHg 65%
12:00 +38°C° 0 mm 2 m/s 751 mmHg 59%
13:00 +39°C° 0 mm 1 m/s 750 mmHg 53%
14:00 +38°C° 0 mm 2 m/s 750 mmHg 55%
15:00 +38°C° 0 mm 2 m/s 749 mmHg 56%
16:00 +38°C° 0 mm 3 m/s 749 mmHg 58%
17:00 +36°C° 0.5 mm 3 m/s 749 mmHg 66%
18:00 +34°C° 0.5 mm 4 m/s 750 mmHg 73%
19:00 +33°C° 0.5 mm 4 m/s 750 mmHg 80%
20:00 +32°C° 0.7 mm 4 m/s 751 mmHg 82%
21:00 +30°C° 0.7 mm 3 m/s 751 mmHg 84%
22:00 +30°C° 0.7 mm 3 m/s 752 mmHg 86%
23:00 +30°C° 0.1 mm 3 m/s 752 mmHg 86%

13 August, Joi

Timp Temperatura Precipitaţii Vânt Presiune Umiditate
00:00 +30°C° 0.1 mm 2 m/s 752 mmHg 87%
01:00 +30°C° 0.1 mm 2 m/s 752 mmHg 87%
02:00 +29°C° 0.5 mm 2 m/s 751 mmHg 88%
03:00 +29°C° 0.5 mm 1 m/s 751 mmHg 89%
04:00 +29°C° 0.5 mm 1 m/s 751 mmHg 90%
05:00 +29°C° 1.4 mm 1 m/s 751 mmHg 90%
06:00 +29°C° 1.4 mm 2 m/s 751 mmHg 90%
07:00 +30°C° 1.4 mm 2 m/s 752 mmHg 90%
08:00 +31°C° 0 mm 2 m/s 752 mmHg 85%
09:00 +32°C° 0 mm 1 m/s 751 mmHg 81%
10:00 +33°C° 0 mm 1 m/s 751 mmHg 77%
11:00 +33°C° 0 mm 1 m/s 751 mmHg 73%
12:00 +34°C° 0 mm 1 m/s 750 mmHg 70%
13:00 +35°C° 0 mm 1 m/s 750 mmHg 67%
14:00 +35°C° 0.4 mm 1 m/s 749 mmHg 67%
15:00 +36°C° 0.4 mm 2 m/s 748 mmHg 66%
16:00 +36°C° 0.4 mm 3 m/s 748 mmHg 66%
17:00 +35°C° 1.3 mm 3 m/s 748 mmHg 71%
18:00 +33°C° 1.3 mm 4 m/s 749 mmHg 77%
19:00 +32°C° 1.3 mm 5 m/s 749 mmHg 83%
20:00 +32°C° 0.4 mm 4 m/s 750 mmHg 84%
21:00 +30°C° 0.4 mm 4 m/s 751 mmHg 86%
22:00 +30°C° 0.4 mm 3 m/s 751 mmHg 87%
23:00 +30°C° 0.6 mm 3 m/s 751 mmHg 87%
Arată mai mult